Location: Bauen
(46.9356°N, 8.5784°E)
Time: 21:59:11
(UTC+00:00)

NOSS 3-1 (A) - Pass Details

Date: 18 February 2020
Orbit: 761 x 1452 km, 63.4° (Epoch: 26 March)

Event Time Altitude Azimuth Distance (km) Brightness Sun altitude
Exits shadow 02:56:37 67° 16° (NNE) 1,361 4.2 -35.9°
Maximum altitude 02:57:17 70° 47° (NE) 1,350 4.2 -35.8°
Drops below altitude 10° 03:05:49 10° 131° (SE) 3,473 6.6 -34.5°
Sets 03:08:53 0° 133° (SE) 4,495 7.3 -34.0°
